Regional Weather Roundup
Issued by NWS

Home | Current Version | Previous Version | Graphics & Text | Print | Product List | Glossary On
Versions: 1 2 3 4 5 6 7 8 9 10 11 12 13 14 15 16 17 18 19 20 21 22 23 24 25 26 27 28 29 30 31 32 33 34 35 36 37 38 39 40 41 42 43 44 45 46 47 48 49 50
000
ASUS43 KOAX 211302
RWRNE

WEATHER ROUNDUP FOR NEBRASKA
NATIONAL WEATHER SERVICE OMAHA NE
800 AM CDT SAT OCT 21 2017

NOTES: SATELLITE DATA IS BEING USED TO AUGMENT CLOUD COVER ABOVE
       12000 FEET.
       "FAIR" INDICATES FEW OR NO CLOUDS BELOW 12,000 FEET WITH NO
       SIGNIFICANT WEATHER AND/OR OBSTRUCTIONS TO VISIBILITY.


NEZ001>004-019>022-054>056-211400-
NEBRASKA PANHANDLE

CITY           SKY/WX    TMP DP  RH WIND       PRES   REMARKS
SCOTTSBLUFF    CLOUDY    47  23  38 W12       29.83R
ALLIANCE       CLOUDY    47  23  38 NW20G29   29.79R
CHADRON        CLOUDY    48  25  40 NW22G35   29.72R
GORDON         CLOUDY    46  37  70 SW6       29.75R
KIMBALL        CLOUDY    43  18  36 NW24G32   29.83R
SIDNEY         CLOUDY    47  20  34 NW22G35   29.83R
$$

NEZ057>060-069>072-079>082-211400-
SOUTHWEST NEBRASKA

CITY           SKY/WX    TMP DP  RH WIND       PRES   REMARKS
NORTH PLATTE   CLEAR     54  33  45 NW22G28   29.66R
IMPERIAL       CLOUDY    52  26  36 NW21G35   29.75R
LEXINGTON      CLOUDY    57  51  80 W18       29.55R
MCCOOK         CLEAR     55  35  47 NW24G35   29.64R
OGALLALA       DRIZZLE   51  31  45 NW25G37   29.74S
$$

NEZ005>010-023>029-035>040-094-211400-
NORTH CENTRAL NEBRASKA

CITY           SKY/WX    TMP DP  RH WIND       PRES   REMARKS
VALENTINE      CLOUDY    51  37  58 NW24G31   29.61R
AINSWORTH      CLEAR     53  39  60 NW22G29   29.60R
BROKEN BOW     MOCLDY    58  55  90 NW15G22   29.54R
O`NEILL        CLOUDY    60  60  98 W10G16    29.54R
ORD            PTCLDY    59  57  93 CALM      29.51R
THEDFORD       MOCLDY    53  41  63 NW13      29.65R
$$

NEZ041-046>049-061>064-073>077-083>087-211400-
SOUTH CENTRAL NEBRASKA

CITY           SKY/WX    TMP DP  RH WIND       PRES   REMARKS
GRAND ISLAND   CLOUDY    66  62  87 S17G26    29.53F
AURORA         CLOUDY    68  61  79 S23G31    29.55S
HASTINGS       CLOUDY    66  60  81 S13G22    29.56R
HEBRON         CLOUDY    69  63  79 S17G30    29.61R
HOLDREGE       PTCLDY    61  57  85 SW10      29.53R
KEARNEY        PTCLDY    63  59  87 S17G24    29.53R
YORK           CLOUDY    68  63  83 S23G31    29.57F
$$

NEZ011>018-030>034-042>045-211400-
NORTHEAST NEBRASKA

CITY           SKY/WX    TMP DP  RH WIND       PRES   REMARKS
NORFOLK        CLOUDY    68  61  78 S14G26    29.53F
ALBION         CLOUDY    68  62  79 S15G21    29.53S
BLAIR          CLOUDY    66  62  86 S16G24    29.63R
COLUMBUS       CLOUDY    70  62  76 S20G31    29.57R
FREMONT        CLOUDY    69  61  75 S21G28    29.58F
TEKAMAH        CLOUDY    67  61  81 SE14G21   29.59F
WAYNE          CLOUDY    69  65  87 S14       29.55R
$$

NEZ050>053-065>068-078-088>093-211400-
SOUTHEAST NEBRASKA

CITY           SKY/WX    TMP DP  RH WIND       PRES   REMARKS
LINCOLN        CLOUDY    69  62  78 S18       29.60S
OMAHA EPPLEY   CLOUDY    68  61  78 S21       29.64R
BEATRICE       CLOUDY    68  63  82 S20G28    29.62S
FALLS CITY     CLOUDY    67  60  78 S17G30    29.69F
NEBRASKA CITY  CLOUDY    67  64  89 S23G33    29.66S
PLATTSMOUTH    CLOUDY    67  63  85 S18G30    29.65R
$$

NEZ044-045-051>053-067-211400-
OMAHA AREA

CITY           SKY/WX    TMP DP  RH WIND       PRES   REMARKS
OMAHA EPPLEY   CLOUDY    68  61  78 S21       29.64R
BLAIR          CLOUDY    66  62  86 S16G24    29.63R
FREMONT        CLOUDY    69  61  75 S21G28    29.58F
MILLARD        CLOUDY    68  63  83 SE12G18   29.64R
OFFUTT AFB     CLOUDY    68  61  78 S13G28    29.64R
PLATTSMOUTH    CLOUDY    67  63  85 S18G30    29.65R
WAHOO          CLOUDY    70  62  75 S20G30    29.60S
$$




USA.gov is the U.S. government's official web portal to all federal, state and local government web resources and services.